[[{"header":{"parameterUnit":"m.s-1","parameterCategory":1,"la1":30.2991,"la2":30.254,"lo1":-89.0895,"lo2":-89.0444,"dy":0.0017,"dx":0.0017,"nx":28,"ny":28,"refTime":"2025-03-13T09:00:00:Z","depth":0,"parameterNumber":2,"parameterNumberName":"U-component_of_WINDS"},"data":[0,0,0,0,0,0,0,0,0,0,0,0,0,0,0,0,0,0,0,0,0,0,0,0,0,0,0,0,0,0,0,0,0,0,0,0,0,0,0,0,0,0,0,0,0,0,0,0,0,0,0,0,0,0,0,0,0,0,-1.9906,-1.9904,0,-1.9782,-1.978,-1.9779,-1.968,-1.9679,-1.9678,-1.9677,-1.9546,-1.9543,-1.9541,0,0,0,0,0,0,0,0,0,0,0,0,0,-2.0052,-2.005,-1.9906,-1.9904,-1.9903,-1.9782,-1.978,-1.9779,-1.968,-1.9679,-1.9678,-1.9677,-1.9547,-1.9544,-1.9541,0,0,0,0,0,0,0,0,0,0,0,0,0,-1.9965,-2.0049,-1.9906,-1.9839,-1.9832,-1.9782,-1.978,-1.9778,-1.9681,-1.9679,-1.9678,-1.9676,-1.9548,-1.9544,-1.954,-1.9546,0,0,-1.9528,-1.9527,0,0,0,0,0,0,0,0,-1.997,-1.9959,-1.985,-1.9844,-1.9835,-1.9745,-1.9784,-1.97,-1.9681,-1.9738,-1.9677,-1.9676,-1.9613,-1.9604,-1.9583,-1.9539,-1.9534,-1.9528,-1.9526,-1.9524,-1.9523,0,0,0,0,0,0,0,-1.9976,-1.9964,-1.9856,-1.9849,-1.984,-1.9814,-1.98,-1.9767,-1.9685,-1.9733,-1.9725,-1.9712,-1.9609,-1.9588,-1.958,-1.9532,-1.9528,-1.9525,-1.9522,-1.9521,-1.9484,-1.9486,0,0,0,0,0,0,-1.9993,-1.997,-1.986,-1.9853,-1.99,-1.9812,-1.9797,-1.9775,-1.9685,-1.967,-1.9714,-1.9708,-1.9595,-1.9584,-1.9575,-1.9573,-1.9524,-1.952,-1.9518,-1.9483,-1.9485,-1.9486,0,0,0,0,0,0,-1.9997,-1.9984,-1.9865,-1.9909,-1.9892,-1.9811,-1.9788,-1.9774,-1.9753,-1.9671,-1.9655,-1.9708,-1.9593,-1.958,-1.9553,-1.9567,-1.9519,-1.9515,-1.9481,-1.9484,-1.9485,-1.9572,0,0,0,0,0,0,-2.0001,-1.9986,-1.9988,-1.991,-1.989,-1.9848,-1.9789,-1.9772,-1.9747,-1.9738,-1.9661,-1.9647,-1.9591,-1.956,-1.955,-1.9561,-1.9512,-1.948,-1.9482,-1.9485,-1.9568,-1.9577,-1.9585,0,0,0,0,0,-2.0007,-2.0017,-1.9989,-1.9976,-1.9892,-1.9849,-1.9837,-1.9775,-1.9748,-1.9749,-1.9696,-1.9649,-1.9569,-1.9558,-1.9546,-1.9556,-1.9478,-1.9482,-1.9485,-1.9564,-1.9575,-1.9585,0,0,0,0,0,0,-2.0097,-2.0005,-1.9973,-1.9959,-1.9913,-1.9832,-1.9831,-1.9789,-1.9748,-1.9741,-1.9664,-1.9648,-1.9629,-1.959,-1.958,-1.9556,-1.9517,-1.9518,-1.9582,-1.9592,-1.96,-1.9609,-1.9509,0,0,0,0,0,-2.0116,-2.009,-2.0011,-2.0006,-1.9985,-1.9913,-1.9891,-1.9848,-1.9796,-1.9775,-1.972,-1.9671,-1.9634,-1.9611,-1.9573,-1.9563,-1.9543,-1.9564,-1.9573,-1.958,-1.9581,-1.9571,-1.9578,-1.9496,-1.9496,-1.9496,0,0,-2.0153,-2.01,-2.0088,-2.0023,-1.9982,-1.9955,-1.9896,-1.9871,-1.985,-1.9771,-1.9742,-1.9701,-1.964,-1.9621,-1.961,-1.9588,-1.96,-1.9584,-1.9591,-1.9587,-1.9575,-1.9583,-1.959,-1.9498,-1.9498,-1.9498,0,0,-2.0207,-2.0166,-2.0156,-2.0116,-2.0056,-2.0008,-2.0006,-1.9932,-1.9902,-1.9873,-1.9812,-1.9786,-1.9725,-1.9683,-1.9654,-1.9695,-1.9648,-1.9684,-1.9728,-1.9719,-1.9726,-1.9731,-1.9743,-1.9748,-1.9686,-1.9686,-1.9686,0,-2.026,-2.0219,-2.0156,-2.0134,-2.0106,-2.0036,-2.0024,-1.9988,-1.9918,-1.99,-1.9877,-1.9799,-1.9753,-1.9723,-1.9733,-1.9713,-1.9706,-1.9691,-1.973,-1.9735,-1.9739,-1.9749,-1.9754,-1.9691,-1.969,-1.969,-1.9689,0,-2.0287,-2.026,-2.0259,-2.0194,-2.0167,-2.0151,-2.0083,-2.0062,-2.0021,-1.9976,-1.9946,-1.9889,-1.9838,-1.9828,-1.9787,-1.9792,-1.978,-1.9745,-1.9704,-1.9752,-1.9761,-1.9764,-1.9697,-1.9696,-1.9694,-1.9693,0,0,-2.0392,-2.0293,-2.0294,-2.0263,-2.0191,-2.0168,-2.0149,-2.01,-2.0083,-2.0037,-2.0017,-1.9968,-1.9935,-1.9903,-1.9857,-1.9849,-1.9882,-1.9815,-1.9812,-1.9827,-1.9881,-1.9906,-1.9912,-1.9853,-1.9853,-1.9854,-1.9885,0,-2.0432,-2.0394,-2.0336,-2.0316,-2.0289,-2.0222,-2.0204,-2.0158,-2.0115,-2.0085,-2.0037,-2.0002,-1.9963,-1.9943,-1.9933,-1.988,-1.9891,-1.9878,-1.983,-1.983,-1.9845,-1.9916,-1.9942,-1.9975,-1.9888,-1.9889,-1.9889,0,-2.0473,-2.0433,-2.0411,-2.0341,-2.0327,-2.0313,-2.0263,-2.0236,-2.0181,-2.015,-2.0115,-2.0066,-2.004,-2.0005,-1.9967,-1.9959,-1.9936,-1.9908,-1.9908,-1.9898,-1.986,-1.9906,-1.9984,-1.9988,-1.9894,-1.9894,-1.9894,0,-2.0549,-2.0489,-2.0467,-2.0443,-2.0362,-2.0353,-2.0319,-2.0263,-2.0237,-2.0194,-2.0176,-2.013,-2.0104,-2.0069,-2.0008,-1.9989,-1.9976,-1.9936,-1.9947,-1.9948,-1.9944,-1.9945,-2.0017,-1.9936,-1.9936,-1.9935,-1.9935,0,-2.0598,-2.0587,-2.05,-2.0486,-2.0471,-2.0405,-2.0391,-2.035,-2.0301,-2.0277,-2.0217,-2.0196,-2.0118,-2.0087,-2.0039,-2.0014,-2.0003,-1.9976,-1.9963,-1.998,-1.9983,-1.9961,-1.9956,-1.9937,-1.9936,-1.9936,-1.9936,0,-2.0679,-2.0621,-2.0592,-2.0519,-2.05,-2.0491,-2.0427,-2.0411,-2.0365,-2.0336,-2.0325,-2.0253,-2.0213,-2.015,-2.0092,-2.0059,-2.0041,-2.0021,-2.006,-2.0052,-2.0065,-2.0064,-2.0123,-2.0127,-2.0047,-2.0048,-2.0048,0,-2.0713,-2.0702,-2.0628,-2.0608,-2.0576,-2.0546,-2.052,-2.0454,-2.0429,-2.0367,-2.0358,-2.0314,-2.0275,-2.0215,-2.0156,-2.0111,-2.0087,-2.0112,-2.008,-2.0097,-2.0084,-2.0085,-2.0082,-2.0118,-2.0119,-2.012,-2.0121,0,-2.0778,-2.075,-2.0716,-2.0671,-2.0642,-2.0603,-2.0562,-2.0549,-2.0474,-2.0449,-2.0408,-2.0379,-2.032,-2.0276,-2.0223,-2.0185,-2.014,-2.0132,-2.0131,-2.0147,-2.0169,-2.0155,-2.0077,-2.013,-2.0129,-2.0128,-2.0128,-2.0128,-2.0834,-2.0821,-2.0767,-2.073,-2.0693,-2.0655,-2.0636,-2.0589,-2.0554,-2.0502,-2.0466,-2.0427,-2.0372,-2.0297,-2.0262,-2.023,-2.021,-2.021,-2.0209,-2.021,-2.0215,-2.0177,-2.022,-2.022,-2.0219,-2.0219,-2.0219,0,-2.0894,-2.0857,-2.0824,-2.0768,-2.0739,-2.0702,-2.0654,-2.0631,-2.0598,-2.0552,-2.0516,-2.0469,-2.0427,-2.0366,-2.0318,-2.0304,-2.0282,-2.0294,-2.0292,-2.0284,-2.0237,-2.0241,-2.0312,-2.0312,-2.0312,-2.0312,-2.0312,-2.0312,-2.0922,-2.0898,-2.0864,-2.082,-2.0781,-2.0744,-2.072,-2.0684,-2.0647,-2.0598,-2.0563,-2.0524,-2.0471,-2.042,-2.0379,-2.0362,-2.0346,-2.0364,-2.034,-2.0296,-2.0288,-2.0279,-2.0282,-2.0362,-2.0362,-2.039,-2.039,-2.039]},{"header":{"parameterUnit":"m.s-1","parameterCategory":1,"la1":30.2991,"la2":30.254,"lo1":-89.0895,"lo2":-89.0444,"dy":0.0017,"dx":0.0017,"nx":28,"ny":28,"refTime":"2025-03-13T09:00:00:Z","depth":0,"parameterNumber":3,"parameterNumberName":"V-component_of_WINDS"},"data":[0,0,0,0,0,0,0,0,0,0,0,0,0,0,0,0,0,0,0,0,0,0,0,0,0,0,0,0,0,0,0,0,0,0,0,0,0,0,0,0,0,0,0,0,0,0,0,0,0,0,0,0,0,0,0,0,0,0,1.8846,1.8847,0,1.8863,1.8863,1.8863,1.89,1.8901,1.8901,1.8902,1.8915,1.8915,1.8915,0,0,0,0,0,0,0,0,0,0,0,0,0,1.8845,1.8845,1.8846,1.8847,1.8847,1.8863,1.8863,1.8863,1.89,1.8901,1.8902,1.8903,1.8916,1.8915,1.8915,0,0,0,0,0,0,0,0,0,0,0,0,0,1.8852,1.8845,1.8846,1.8867,1.8869,1.8863,1.8863,1.8864,1.89,1.8901,1.8902,1.8903,1.8916,1.8915,1.8915,1.8889,0,0,1.8913,1.8913,0,0,0,0,0,0,0,0,1.8852,1.8852,1.8864,1.8866,1.8868,1.8881,1.8868,1.8872,1.8899,1.8888,1.8902,1.8903,1.8903,1.8903,1.8904,1.8889,1.889,1.8913,1.8913,1.8912,1.8912,0,0,0,0,0,0,0,1.8851,1.8851,1.8853,1.8864,1.8866,1.8875,1.8877,1.8869,1.8889,1.8889,1.8892,1.8893,1.8904,1.8904,1.8904,1.889,1.8913,1.8913,1.8912,1.8912,1.8859,1.8858,0,0,0,0,0,0,1.8848,1.8851,1.8852,1.8853,1.8862,1.8874,1.8877,1.8875,1.8889,1.8892,1.8892,1.8895,1.8905,1.8905,1.8905,1.8878,1.8912,1.8912,1.8912,1.886,1.8859,1.8858,0,0,0,0,0,0,1.8848,1.8848,1.8852,1.8853,1.8854,1.8873,1.8871,1.8875,1.8875,1.8891,1.8895,1.8889,1.8906,1.8906,1.8894,1.8879,1.8912,1.8911,1.8862,1.886,1.8858,1.8823,0,0,0,0,0,0,1.8848,1.8847,1.8838,1.8852,1.8854,1.884,1.887,1.8875,1.8875,1.8878,1.8889,1.8892,1.8906,1.8894,1.8893,1.8879,1.8911,1.8863,1.8861,1.8859,1.8826,1.882,1.8816,0,0,0,0,0,1.8847,1.8825,1.8837,1.8837,1.8842,1.8839,1.884,1.8858,1.8873,1.8864,1.8875,1.8892,1.8881,1.8893,1.8892,1.8877,1.8864,1.8861,1.8859,1.8828,1.8821,1.8816,0,0,0,0,0,0,1.8806,1.8827,1.8841,1.8823,1.8829,1.8845,1.8834,1.885,1.8851,1.8854,1.8875,1.8878,1.8863,1.8869,1.8882,1.8855,1.8875,1.8873,1.8852,1.8846,1.8841,1.8841,1.891,0,0,0,0,0,1.8795,1.8792,1.881,1.8793,1.8796,1.8814,1.8813,1.8827,1.8834,1.8837,1.8846,1.8852,1.885,1.8848,1.8847,1.8827,1.8831,1.8816,1.8812,1.8808,1.8805,1.8798,1.8793,1.885,1.885,1.885,0,0,1.8772,1.8783,1.8779,1.8785,1.8792,1.8788,1.8816,1.881,1.8807,1.8835,1.8826,1.8833,1.8841,1.8825,1.8819,1.8829,1.879,1.8804,1.8801,1.8801,1.8795,1.879,1.8785,1.8848,1.8848,1.8849,0,0,1.8728,1.8736,1.8724,1.8731,1.8742,1.8755,1.8752,1.8767,1.8774,1.8765,1.8787,1.8783,1.8779,1.8785,1.8787,1.875,1.8766,1.8748,1.8723,1.8716,1.8712,1.8708,1.8697,1.8692,1.8746,1.8746,1.8746,0,1.8698,1.8694,1.8715,1.8709,1.8712,1.8739,1.8728,1.8733,1.8742,1.8743,1.8756,1.8754,1.876,1.8748,1.874,1.8739,1.8738,1.8747,1.8711,1.8707,1.8704,1.8694,1.8689,1.8744,1.8744,1.8744,1.8744,0,1.8657,1.8654,1.8643,1.8654,1.8656,1.8646,1.8667,1.8666,1.868,1.8692,1.8684,1.8694,1.8697,1.8695,1.8707,1.8685,1.8692,1.8707,1.8728,1.8696,1.8687,1.8683,1.8741,1.8741,1.8742,1.8743,0,0,1.8586,1.8612,1.8608,1.8615,1.863,1.8628,1.8621,1.8626,1.8626,1.8632,1.8628,1.8625,1.864,1.8643,1.8657,1.865,1.8624,1.8666,1.8667,1.866,1.8603,1.8593,1.8588,1.8634,1.8634,1.8633,1.8603,0,1.8548,1.8539,1.856,1.8545,1.8544,1.8572,1.8566,1.8575,1.8587,1.8588,1.86,1.8599,1.8618,1.862,1.8615,1.8628,1.8613,1.863,1.8631,1.8631,1.863,1.8583,1.8571,1.8542,1.8599,1.8599,1.8598,0,1.85,1.8507,1.8494,1.8514,1.8514,1.8509,1.8517,1.8517,1.8528,1.8537,1.8542,1.856,1.8555,1.8575,1.857,1.8582,1.8584,1.859,1.859,1.8591,1.8613,1.8585,1.8533,1.8529,1.8592,1.8593,1.8593,0,1.8453,1.8459,1.8453,1.8457,1.8479,1.8475,1.8484,1.8497,1.85,1.8507,1.8509,1.8514,1.8517,1.8521,1.854,1.8553,1.8534,1.8555,1.8542,1.8542,1.8537,1.8537,1.8487,1.8536,1.8536,1.8536,1.8536,0,1.8408,1.8399,1.8432,1.8428,1.842,1.8444,1.8435,1.8447,1.8459,1.8458,1.8481,1.848,1.8504,1.8506,1.852,1.8515,1.8516,1.8524,1.8528,1.8523,1.8522,1.8525,1.8528,1.8535,1.8535,1.8535,1.8535,0,1.8354,1.8375,1.8371,1.8394,1.8399,1.8392,1.8412,1.8409,1.8424,1.8423,1.8424,1.8446,1.845,1.8469,1.8476,1.8486,1.8476,1.8483,1.8473,1.8476,1.8463,1.8465,1.8414,1.841,1.8459,1.8459,1.8458,0,1.8324,1.8319,1.8343,1.8345,1.8354,1.8356,1.836,1.8385,1.8388,1.8403,1.8399,1.8405,1.8411,1.8415,1.8432,1.8438,1.8447,1.8429,1.8448,1.8444,1.8449,1.845,1.8451,1.8425,1.8424,1.8423,1.8423,0,1.8271,1.8283,1.8289,1.8299,1.8304,1.8313,1.8323,1.8323,1.835,1.8353,1.8358,1.8363,1.8373,1.8379,1.8388,1.8397,1.8415,1.8417,1.8415,1.841,1.8405,1.841,1.8464,1.8418,1.8419,1.8419,1.8419,1.8419,1.823,1.8228,1.8245,1.8251,1.8262,1.8272,1.8273,1.8288,1.8294,1.8305,1.8318,1.8322,1.8337,1.8352,1.836,1.8364,1.8374,1.837,1.8369,1.8368,1.8366,1.8404,1.8365,1.8366,1.8366,1.8366,1.8366,0,1.8179,1.8193,1.8199,1.8214,1.822,1.8238,1.8251,1.8254,1.8258,1.8271,1.8278,1.8285,1.8292,1.831,1.8319,1.8319,1.8328,1.8321,1.8321,1.8324,1.8356,1.8358,1.8314,1.8314,1.8314,1.8314,1.8314,1.8314,1.8154,1.8152,1.8167,1.8172,1.8185,1.8191,1.8197,1.8207,1.8218,1.8225,1.8232,1.8245,1.8261,1.8271,1.8279,1.8284,1.8287,1.8278,1.8286,1.8316,1.8321,1.8326,1.8328,1.8278,1.8278,1.8254,1.8254,1.8254]}]]